www.pogodaiklimat.ru

Погода и климат >> Архив погоды >> Антарктида >> Mawson


ПОГОДА в Mawson

  • Прогноз погоды в Mawson
  • Монитор погоды в Mawson
  • Климат города

АРХИВ ПОГОДЫ в Mawson

Время (UTC), дата Ветер
(напр.,м/с)
 
Видим.   Явления Облачность Т
(С)
Тd
(С)
f
(%)
Тe
(С)
Тes
(С)
Комфортность P
(гПа)
Po
(гПа)
Тmin
(С)
Tmax
(С)
R
(мм)
R24
(мм)
S
(см)
03 12.11 ЮВ 6 30 км 1/1 1000 м
[Sc Cs]
-9.6 -23.5 31 -17 -16 981.7 979.7 -14.9
06 12.11 В 6 20 км 3/0
[Cs]
-8.5 -21.2 35 -16 -13 981.8 979.8
09 12.11 С 3 30 км 4/0
[Cs]
-7.4 -18.6 40 -12 -4 982.1 980.1
12 12.11 С 3 30 км 6/0
[Cs]
-7.6 -16.7 48 -12 -9 981.4 979.4
15 12.11 В 4 н/о н/о -8.7 -17.2 50 -15 -15 982.2 980.2 -6.8
18 12.11 ЮВ 11 н/о н/о -10.9 -19.2 50 -22 -22 982.6 980.6
21 12.11 ЮВ 11 н/о н/о -13.3 -20.6 54 -25 -25 983.0 981.0
00 13.11 ЮВ 11 н/о н/о -13.8 -21.7 51 -26 -26 983.7 981.7
03 13.11 ЮВ 10 30 км 5/5 1500 м
[Sc Ci fib]
-10.4 -22.2 37 -21 -21 983.9 981.9 -14.6
06 13.11 В 5 30 км 5/5 1500 м
[Sc]
-8.9 -18.9 44 -16 -13 984.2 982.2
09 13.11 СЗ 3 30 км 3/3 600 м
[Cu Sc Ci fib]
-7.3 -16.2 49 -13 -7 984.1 982.1
12 13.11 З 2 30 км 5/4 600 м
[Cu Sc Ac trans Cs]
-7.2 -14.7 55 -11 -9 983.1 981.1
15 13.11 З 3 н/о н/о -8.8 -14.5 63 -14 -14 981.8 979.8 -6.6
18 13.11 ЮВ 5 н/о н/о -11.5 -18.7 55 -20 -20 980.0 978.0
21 13.11 ЮВ 14 н/о н/о -12.1 -21.1 47 -25 -25 977.6 975.6
00 14.11 ЮВ 16 н/о н/о -12.6 -22.3 44 -26 -26 975.6 973.7
03 14.11 ЮВ 19 30 км 1/1 1000 м
[Sc Ci fib]
-11.8 -21.3 45 -26 -26 974.1 972.2 -14.0
06 14.11 ЮВ 10 30 км 1/1 1000 м
[Sc Ci fib]
-8.7 -19.5 41 -19 -18 975.3 973.4
09 14.11 В 8 30 км 1/1 600 м
[Cu Sc]
-7.6 -18.5 41 -16 -14 975.3 973.4
12 14.11 СВ 5 30 км 1/1 1000 м
[Sc]
-7.3 -18.5 40 -14 -11 975.4 973.5
15 14.11 СЗ 4 н/о н/о -8.4 -16.5 52 -15 -15 975.1 973.2 -6.9
18 14.11 ЮВ 4 н/о н/о -10.7 -14.7 72 -17 -17 975.2 973.3
21 14.11 Ю 13 н/о н/о -14.7 -22.6 51 -28 -28 974.6 972.7
00 15.11 Ю 13 н/о н/о -15.6 -25.3 43 -29 -29 974.2 972.3
03 15.11 ЮВ 4 30 км ясно -12.0 -22.8 40 -19 -17 974.4 972.5 -16.1
06 15.11 СВ 5 30 км 1/1 1000 м
[Sc]
-10.2 -20.9 41 -18 -13 974.4 972.5
09 15.11 В 8 30 км 1/1 1000 м
[Sc]
-7.8 -17.9 44 -17 -15 974.8 972.9
12 15.11 СВ 5 30 км 1/1 600 м
[Sc]
-7.7 -17.8 44 -15 -12 976.4 974.5
15 15.11 ЮВ 6 н/о н/о -8.9 -17.9 48 -17 -17 978.2 976.2 -6.9
18 15.11 Ю 10 н/о н/о -12.4 -20.6 50 -24 -24 980.6 978.6
21 15.11 ЮВ 13 н/о н/о -13.8 -23.4 44 -27 -27 981.8 979.8
00 16.11 Ю 15 н/о н/о -15.2 -24.7 44 -29 -29 983.7 981.7
03 16.11 ЮВ 11 30 км 1/1 1500 м
[Sc]
-10.5 -23.0 35 -22 -22 985.5 983.5 -16.0
06 16.11 ЮВ 13 30 км 1/1 1500 м
[Sc Cs]
-8.8 -20.8 37 -20 -20 987.6 985.6
09 16.11 В 9 30 км 1/0
[Cs]
-7.8 -21.2 33 -17 -16 989.9 987.9
12 16.11 В 5 30 км 1/1 1500 м
[Sc Ci fib]
-7.8 -20.2 36 -15 -12 992.0 990.0
15 16.11 В 4 н/о н/о -8.7 -19.3 42 -15 -15 994.1 992.1 -6.6
18 16.11 Ю 5 н/о н/о -10.8 -17.8 56 -19 -19 996.4 994.4
21 16.11 Ю 10 н/о н/о -13.0 -23.4 41 -24 -24 998.1 996.1
00 17.11 ЮВ 9 н/о н/о -13.1 -23.0 43 -24 -24 999.1 997.1
03 17.11 ЮЗ 4 30 км 9/0
[Cs]
-8.2 -22.6 30 -14 -12 1000.9 998.9 -15.2
06 17.11 СВ 4 30 км 9/0
[As trans]
-8.0 -20.1 37 -14 -12 1000.8 998.8
09 17.11 С 2 30 км 9/0
[As trans]
-7.8 -17.1 47 -12 -7 1001.7 999.7
12 17.11 В 7 30 км 9/0 2000 м
[As trans]
-6.2 -16.4 44 -14 -13 1001.0 999.0
15 17.11 В 8 н/о н/о -7.0 -13.6 59 -16 -16 1000.7 998.7 -5.5
18 17.11 В 7 н/о н/о -8.1 -14.3 61 -17 -17 1000.9 998.9
21 17.11 В 10 н/о н/о -8.9 -16.7 53 -19 -19 999.3 997.3
00 18.11 В 14 н/о н/о -7.7 -17.3 46 -19 -19 995.6 993.6
03 18.11 В 11 30 км осадки на расстоянии 10/10 1500 м
[Sc]
-7.0 -15.6 50 -17 -17 994.7 992.7 -13.1
06 18.11 В 13 30 км 10/10 1500 м
[Sc]
-5.7 -14.9 48 -16 -16 991.4 989.4
09 18.11 ЮВ 20 25 км осадки на расстоянии 10/10 1500 м
[Sc]
-5.1 -13.6 51 -17 -17 987.3 985.3
12 18.11 ЮВ 21 25 км осадки на расстоянии 10/10 1500 м
[Sc]
-5.0 -11.7 59 -17 -17 981.4 979.4
15 18.11 ЮВ 26 н/о н/о -4.4 -14.0 47 -17 -17 974.8 972.9 -4.1
18 18.11 ЮВ 27 н/о н/о -4.6 -13.4 50 -18 -18 970.8 968.9
21 18.11 ЮВ 28 н/о н/о -5.2 -11.5 61 -19 -19 966.7 964.8
00 19.11 ЮВ 30 н/о н/о -2.6 -18.5 28 -15 -15 962.9 961.0

 

Местоположение метеостанции Mawson (Антарктида): широта -67.60 долгота 62.87 высота над уровнем моря 16 м.

В архиве по умолчанию представлена погода в Mawson за последнюю неделю. Архивные данные за месяц целиком и за предыдущие месяцы, начиная с января 2011 года, Вы можете получить, выбрав интересующий диапазон дат из раскрывающегося списка и нажав кнопку "Ввод!".


*Определитесь, кто Вы:
робот инопланетянин человек

Внимание! Время в таблицах - всемирное. Для получения местного времени необходимо прибавить поправку, которая в Mawson равна 0 ч.

Смотрите также архив погоды в соседних городах и на ближайших метеорологических станциях:

Погода в Amery Ice Shelf (Антарктида) (459 км)
Погода в Druzhnaya-4 (Антарктида) (497 км)
Погода в Bharati (Антарктида) (578 км)
Погода в Zhongshan (Антарктида) (583 км)
Погода в Progress (Антарктида) (584 км)
Погода в Davis (Антарктида) (634 км)
Погода в Davis (Whoop Whoop) (Антарктида) (669 км)
Погода в Molodezhnaya (Антарктида) (718 км)
Погода в Relay Station (Антарктида) (1007 км)
Погода в Dome Plateau Eagle (Антарктида) (1087 км)

Пояснения к столбцам:

Ветер - указаны скорость ветра в м/с - средняя за 10 мин, порывы в срок и между сроками (в фигурных скобках) и направление, откуда дует ветер: С - северный, СВ - северо-восточный, В - восточный, ЮВ - юго-восточный, Ю - южный, ЮЗ - юго-западный, З - западный, СЗ - северо-западный.
Видимость - горизонтальная дальность видимости в метрах или километрах. При видимости от 1 до 10 км при отсутствии осадков обычно наблюдается дымка, при ухудшении видимости до 1 км и менее - туман. В сухую погоду видимость может ухудшаться дымом, пылью или мглою.
Явления - указаны атмосферные явления, наблюдавшиеся в срок или в последний час перед сроком; фигурными скобками обозначены явления, наблюдавшиеся между сроками (за 1-3 часа до срока); квадратными скобками обозначены град или гололедные отложения с указанием их диаметра в мм.
Облачность - указаны через наклонную черту общая и нижняя облачность в баллах и высота нижней границы облаков в метрах; квадратными скобками обозначены формы облаков: Ci - перистые, Cs - перисто-слоистые, Cc - перисто-кучевые, Ac - высококучевые, As - высокослоистые, Sc - слоисто-кучевые, Ns - слоисто-дождевые, Cu - кучевые, Cb - кучево-дождевые. Подробнее классификацию облаков см. в Атласе облаков (PDF).
T - Температура воздуха - температура, измеренная на высоте 2 м над землей.
Td - Температура точки росы - температура, при понижении до которой содержащийся в воздухе водяной пар достигнет насыщения.
f - Относительная влажность воздуха - влажноcть воздуха, измеренная на высоте 2 м над землей.
Te - Эффективная температура - температура, которую ощущает одетый по сезону человек в тени. Характеристика душности погоды. При расчете учитывается влияние влажности воздуха и скорости ветра на теплоощущения человека.
Tes - Эффективная температура на солнце - температура, которую ощущает человек, с поправкой на солнечный нагрев. Характеристика знойности погоды. Зависит от высоты солнца над горизонтом, облачности и скорости ветра. Ночью, в пасмурную погоду, а также при ветре 12 м/с и более поправка равна нулю.
P - Атмосферное давление - приведенное к уровню моря атмосферное давление.
Po - Атмосферное давление - измеренное на уровне метеостанции атмосферное давление.
Tmin - Минимальная температура - минимум температуры воздуха на высоте 2 м над землей.
Tmax - Максимальная температура - максимум температуры воздуха на высоте 2 м над землей.
R - Количество осадков - Количество выпавших осадков за период времени, мм. При наведении курсора мыши на число - период времени, за который выпало указанное количество осадков.
R24 - Количество осадков - Количество выпавших осадков за 24 часа, мм.
S - Снежный покров - Высота снежного покрова, см. При наведении курсора мыши на число - состояние снежного покрова и степень покрытия местности в баллах.